Temperature
19 19 18 18 17 17 16 16 16 16 15 14 14 13 13 13 12 12 12 11 11 11 10 10 10 10 9 9 9 9 9 9 9 9 9 9 9 9 9 9 8 8 8
19 19 18 18 18 18 17 17 16 16 16 15 15 15 14 13 13 12 12 11 11 11 11 10 10 10 10 9 9 9 9 9 9 9 8 8 9 9 9 9 9 8 8
20 19 18 18 18 18 18 18 17 17 16 16 15 14 13 12 12 12 12 12 11 11 11 11 10 10 10 10 9 9 9 9 9 9 8 8 9 8 9 9 9 8 8
19 19 19 18 18 19 19 18 18 17 17 16 14 14 13 13 13 13 13 12 11 11 11 11 10 10 10 10 10 10 9 9 9 9 9 8 8 8 8 8 8 8 8
19 19 19 19 19 19 19 19 18 17 16 16 15 14 14 14 13 12 12 12 11 11 11 11 10 10 10 10 10 10 9 9 9 9 9 9 8 8 8 8 8 8 8
18 19 19 19 19 19 19 18 18 17 16 16 15 15 14 14 13 12 12 12 12 11 11 11 10 10 10 10 10 10 10 9 9 9 9 9 8 8 8 7 7 7 7
18 18 18 18 19 19 19 18 18 17 16 16 15 15 15 14 13 13 13 12 12 12 11 11 11 10 10 10 10 10 9 9 9 9 9 9 8 8 8 7 7 7 7
18 18 18 18 19 19 19 19 18 17 17 16 16 15 14 13 13 13 13 12 12 13 12 11 11 11 10 10 10 10 9 9 9 9 9 9 8 8 8 7 7 6 6
17 18 18 18 19 18 19 19 18 17 17 16 15 15 14 14 13 13 12 12 12 12 12 12 11 11 10 10 10 10 9 9 9 9 9 8 8 8 8 7 7 6 5
17 17 18 18 18 18 18 18 18 17 17 16 15 15 15 14 14 13 12 12 12 12 12 12 11 11 10 10 10 10 9 9 9 9 8 8 8 8 7 7 7 6 5
17 17 17 18 18 18 18 18 17 17 16 15 15 15 14 14 13 13 13 12 12 12 12 12 11 11 10 10 10 9 9 9 9 8 8 8 8 7 7 7 6 6 5
17 17 17 17 17 17 17 17 17 17 16 16 15 15 14 14 13 13 13 12 12 12 12 12 11 11 10 10 9 9 9 9 8 8 8 8 8 7 7 6 6 5 5
15 16 16 17 17 17 17 17 17 16 16 15 15 14 14 13 13 13 12 12 12 12 11 11 11 10 10 10 9 9 9 8 8 8 8 8 7 7 6 6 5 5 5
15 15 16 16 16 17 17 17 16 16 16 15 15 15 14 14 13 12 12 12 12 11 11 11 11 10 10 10 9 9 8 8 8 8 7 7 7 6 6 5 5 4 4
14 15 15 16 16 16 16 16 16 16 15 15 15 15 14 13 13 12 12 11 11 11 11 10 10 10 10 9 9 9 8 8 8 7 7 7 6 6 5 5 4 4 3
14 15 15 15 16 16 16 16 16 16 15 15 15 14 14 13 12 12 11 11 11 10 10 10 9 9 9 9 9 8 8 8 7 7 7 6 6 5 5 4 4 3 3
14 15 15 16 16 16 16 16 16 15 15 15 14 14 13 13 12 11 11 11 10 10 10 9 9 9 9 8 8 8 7 7 7 6 6 6 5 5 4 4 3 3 2
15 15 15 15 16 16 16 16 16 15 15 15 14 14 13 12 12 11 10 10 10 9 9 9 9 8 8 8 8 7 7 7 6 6 5 5 5 4 4 3 3 2 2
15 15 15 16 15 15 15 15 15 15 15 14 14 13 13 12 11 11 10 10 9 9 9 9 8 8 8 7 7 7 6 6 5 5 5 4 4 4 3 3 2 2 1
15 15 15 15 15 15 15 15 15 15 15 14 14 13 12 12 11 11 10 10 9 9 8 8 8 7 7 7 6 6 6 5 5 4 4 4 3 3 2 2 1 1 0
14 14 14 15 15 15 15 15 15 15 15 14 13 12 12 11 11 10 10 9 9 8 8 7 7 7 6 6 6 5 5 4 4 4 3 3 3 2 2 1 1 0 -0
13 14 14 14 14 14 14 14 14 14 14 13 13 12 11 11 10 9 9 9 8 8 7 7 6 6 6 5 5 5 4 4 3 3 3 2 2 1 1 0 -0 -1 -1
12 13 13 14 14 14 14 14 14 14 13 13 12 11 11 10 10 9 9 8 8 7 7 6 6 6 5 5 4 4 4 3 3 2 2 2 1 1 0 -0 -1 -1 -2
11 12 12 13 13 13 13 13 14 13 13 12 11 11 10 10 9 8 8 8 7 7 6 6 6 5 5 4 4 3 3 3 2 2 1 1 0 -0 -1 -1 -2 -2 -3
11 11 12 12 13 13 13 13 13 13 12 12 11 10 10 9 8 8 7 7 7 7 6 6 6 5 4 4 3 3 2 2 1 1 0 -0 -0 -1 -1 -2 -2 -3 -3
10 10 11 11 12 12 12 12 12 12 12 11 10 10 9 8 8 7 7 6 6 6 5 5 5 4 4 3 3 2 2 1 1 0 -0 -1 -1 -2 -2 -3 -3 -4 -4
Wind_Speed
19 18 18 18 19 19 21 22 22 21 19 16 15 15 14 13 13 13 16 18 17 17 16 11 11 10 9 9 9 7 6 5 3 3 3 4 4 4 3 3 4 3 3
18 16 17 17 20 21 22 22 23 22 21 18 17 15 15 13 13 12 15 18 18 18 16 14 11 11 9 10 10 8 6 4 4 4 3 3 4 4 4 4 4 4 4
20 19 18 19 20 21 23 21 23 23 23 21 15 13 11 10 11 13 13 16 19 19 17 17 14 12 11 10 11 10 10 6 6 5 4 4 3 2 4 5 5 5 5
20 19 18 19 20 21 21 22 22 23 23 21 18 20 16 15 17 14 14 15 19 19 19 17 16 13 12 11 11 11 9 8 6 5 5 5 4 4 3 4 5 5 6
20 19 19 18 19 19 19 20 21 22 22 22 22 21 19 17 14 14 15 15 15 17 18 18 16 14 12 13 12 11 11 9 8 6 5 5 5 6 5 6 5 5 5
18 18 17 16 16 16 17 18 20 22 22 23 23 23 22 19 17 17 16 14 13 14 18 17 16 15 13 13 13 12 13 11 10 8 7 6 5 5 6 7 7 6 5
16 16 16 16 15 16 18 18 20 21 22 23 23 23 23 21 20 18 17 15 13 13 17 16 16 15 14 14 13 12 12 12 11 10 8 8 7 5 5 6 7 6 5
15 15 16 15 15 16 18 19 20 21 21 22 22 21 21 17 15 18 15 16 14 14 16 17 16 16 15 14 13 11 11 10 11 11 10 7 7 7 6 6 5 6 6
15 15 14 14 14 15 17 19 20 20 20 21 21 20 20 19 17 17 16 14 14 12 16 16 16 16 15 14 13 10 11 10 10 10 10 9 7 7 7 6 6 5 6
15 14 13 13 12 13 14 16 18 19 19 19 19 16 19 19 17 16 16 15 15 13 14 15 15 15 14 14 13 11 11 11 10 8 10 9 7 6 6 6 7 7 7
14 13 12 12 11 11 12 14 15 16 16 18 18 17 17 17 16 15 16 15 14 14 14 14 14 14 14 14 13 12 11 12 10 9 10 10 8 7 6 6 6 7 7
11 11 11 10 10 11 12 13 14 15 15 16 16 16 16 15 16 15 15 14 14 13 13 13 13 13 13 13 13 13 12 12 11 11 10 10 7 9 7 6 7 7 8
8 9 10 10 11 11 11 12 13 14 14 14 15 15 15 15 15 15 14 13 13 12 12 12 13 13 13 12 12 12 11 11 11 10 10 10 9 9 7 8 7 7 7
8 9 9 10 10 10 11 12 12 13 13 14 14 15 15 15 14 13 13 13 12 12 12 12 12 11 11 11 11 10 10 10 9 9 9 9 9 9 8 7 7 6 7
8 9 9 9 10 10 10 11 11 12 13 13 14 14 13 13 12 12 12 12 11 11 11 11 10 10 9 9 10 9 9 9 8 7 7 7 7 7 7 6 6 6 6
8 8 9 10 10 10 10 10 11 12 13 13 13 12 12 12 12 12 11 11 11 10 10 10 10 10 7 9 11 9 8 8 8 7 6 6 6 7 9 9 9 8 8
8 9 10 10 10 10 11 11 11 12 12 12 12 12 13 12 12 11 11 11 11 10 10 10 9 9 8 10 12 11 8 7 7 7 6 4 5 7 6 8 10 10 11
9 9 9 9 9 9 10 10 11 12 12 12 12 12 13 13 12 12 12 11 10 9 9 9 9 8 7 10 11 11 8 6 6 6 6 5 5 5 5 5 6 7 8
10 10 10 9 9 10 11 11 11 11 12 12 13 13 13 13 13 13 12 10 9 9 8 8 8 8 7 10 10 10 6 5 5 4 4 5 5 5 6 5 5 6 6
8 8 8 8 9 10 11 12 12 13 13 13 13 13 13 13 13 12 11 9 9 8 8 7 7 7 7 9 10 10 5 5 4 3 4 5 5 5 6 5 5 6 6
8 7 8 9 10 11 13 13 13 13 12 12 12 12 12 12 12 11 10 10 9 9 8 7 6 6 6 9 10 9 5 5 4 3 3 3 5 5 5 5 5 5 5
7 7 8 9 9 12 14 13 13 12 12 13 13 13 12 11 10 12 10 10 10 9 8 7 6 4 5 6 8 9 6 5 4 3 3 3 4 4 4 4 4 4 4
7 7 8 9 9 12 14 14 12 13 14 14 13 13 12 11 11 11 11 10 9 8 7 7 6 5 4 4 7 7 6 5 3 2 2 2 3 3 3 3 3 3 3
6 6 8 10 10 11 12 12 13 14 15 15 14 13 12 11 10 9 9 9 8 8 7 7 6 5 5 4 4 5 4 5 3 2 3 3 3 2 2 2 2 2 3
6 7 9 10 11 11 11 12 14 15 15 14 13 12 11 11 10 8 6 7 6 7 8 7 7 7 6 6 7 5 4 4 3 3 2 2 2 2 2 2 2 2 2
6 7 8 9 10 12 12 13 14 15 16 14 13 11 10 10 9 9 7 7 6 8 7 7 6 5 5 8 8 7 6 6 6 4 3 3 3 3 3 2 3 3 3
Wind_Direction
228 220 214 208 204 202 201 200 198 198 195 194 195 196 201 201 202 203 204 203 203 202 204 205 204 203 207 209 210 208 209 216 218 236 252 236 228 230 225 227 225 216 226
226 216 209 204 203 202 201 201 200 198 196 197 197 200 201 203 204 202 205 204 204 204 205 207 206 203 208 211 210 208 212 209 209 231 253 255 222 214 221 225 230 234 233
226 219 210 206 203 203 202 200 200 198 198 197 195 194 196 198 200 203 205 206 205 205 205 209 208 206 207 210 210 208 210 213 207 222 238 256 263 269 210 220 228 234 243
228 225 217 208 205 204 201 201 199 199 198 195 195 193 196 200 204 202 204 203 205 206 206 208 209 208 209 211 211 209 211 213 212 208 229 250 275 265 264 224 226 237 249
226 223 219 212 207 202 198 199 198 198 197 196 198 198 203 206 204 201 202 202 202 206 207 207 208 210 210 212 210 207 208 212 215 207 204 221 235 246 256 267 257 247 244
222 222 219 212 206 198 195 196 197 198 197 197 200 202 204 204 200 199 199 199 200 204 207 208 208 210 210 210 209 207 208 211 214 211 208 208 216 222 233 255 268 271 264
220 217 212 205 201 196 194 194 196 197 197 198 201 203 205 205 204 201 201 198 199 202 206 205 208 209 209 208 206 207 209 210 211 214 216 220 228 229 234 251 266 273 275
217 213 210 205 200 196 193 193 196 197 196 197 201 203 204 205 207 206 204 202 202 204 203 204 207 208 206 205 205 207 209 210 212 216 216 218 222 220 223 237 254 269 268
214 212 208 204 199 194 193 193 194 195 195 197 199 201 202 204 206 206 206 207 206 204 202 202 205 206 205 204 202 207 207 208 211 213 215 218 220 218 223 227 231 247 270
213 210 205 199 196 193 192 192 193 194 194 195 197 199 201 204 205 204 204 205 205 201 199 201 203 204 203 202 202 206 207 206 210 210 213 217 218 214 217 222 229 235 250
206 203 199 194 188 185 186 188 190 191 192 193 195 197 199 201 202 203 205 205 204 201 199 200 201 202 202 202 203 205 202 207 209 208 214 219 217 216 217 220 227 235 241
201 195 189 183 180 181 183 185 186 189 190 190 192 195 196 196 199 201 202 201 201 199 199 197 198 201 201 201 203 204 203 207 210 211 213 219 215 221 221 221 227 235 240
187 183 180 181 181 181 181 183 185 186 185 185 188 190 192 194 196 198 197 196 196 195 194 194 196 199 200 200 203 203 202 207 211 211 213 216 213 222 223 225 231 237 243
185 182 180 182 181 181 180 181 183 182 180 181 184 188 191 192 193 193 192 192 190 189 190 192 195 196 196 196 198 199 202 207 211 212 212 214 214 222 226 229 235 239 245
189 189 186 184 181 180 179 180 179 178 177 179 183 187 186 185 185 186 187 185 185 185 185 186 189 190 191 193 192 193 197 202 208 212 215 220 221 226 227 228 233 234 242
201 198 193 188 187 186 181 178 178 176 176 179 181 179 178 178 180 180 179 177 178 179 180 185 186 189 190 182 184 187 193 199 205 212 217 220 221 226 230 234 236 233 240
213 206 202 197 193 191 183 180 177 172 175 177 176 175 175 175 175 172 172 175 177 177 179 183 185 189 187 176 181 184 192 198 206 210 211 213 221 222 232 238 240 241 245
225 217 210 205 198 190 183 175 169 171 172 173 174 173 172 172 170 170 173 175 175 176 178 180 181 183 179 174 178 179 192 199 203 205 207 212 218 218 226 237 243 248 249
235 225 215 206 193 184 176 167 168 170 172 175 175 173 171 169 169 171 173 171 169 170 170 173 176 178 173 169 171 171 185 193 199 199 204 209 219 218 218 230 244 256 262
240 225 210 200 192 182 170 168 172 174 180 179 174 170 169 169 169 169 167 164 163 162 159 162 170 172 169 163 167 173 178 187 191 192 202 208 221 216 216 232 244 255 265
240 220 203 198 192 178 170 174 176 182 178 169 164 164 166 166 164 160 160 157 154 153 154 154 158 162 161 161 166 173 180 185 188 196 206 212 212 218 224 241 252 264 279
234 216 201 197 186 178 174 177 181 174 162 159 158 159 159 156 155 154 154 155 154 154 154 154 151 152 153 157 167 175 180 180 189 201 208 209 204 217 225 239 265 272 277
230 214 199 189 185 183 180 178 172 160 157 155 155 154 152 153 155 155 154 155 158 158 160 160 160 155 151 154 161 171 175 175 184 187 186 189 190 209 222 240 256 261 268
228 209 193 188 187 182 181 173 161 158 156 155 153 152 151 150 150 151 155 158 162 162 162 164 164 159 159 160 165 170 170 166 173 165 162 171 172 196 229 237 241 256 268
224 205 197 189 183 175 170 163 160 157 155 153 151 151 150 148 146 144 148 156 161 168 166 169 167 168 175 177 171 171 176 179 171 157 158 179 194 218 231 245 257 268 272
217 204 196 184 175 168 164 162 161 159 154 151 153 153 151 148 145 140 123 92 115 122 127 138 151 157 155 156 165 165 158 155 157 162 186 202 215 232 242 251 263 270 275
Height
1465 1469 1471 1474 1478 1481 1484 1488 1492 1495 1499 1503 1506 1509 1512 1515 1518 1521 1524 1527 1530 1532 1535 1537 1539 1541 1542 1544 1545 1546 1547 1547 1547 1547 1547 1545 1544 1543 1543 1542 1541 1540 1539
1459 1462 1464 1467 1470 1474 1477 1481 1485 1489 1492 1496 1500 1503 1507 1510 1513 1516 1519 1522 1525 1528 1531 1533 1535 1537 1539 1541 1542 1543 1544 1544 1545 1545 1545 1545 1545 1541 1541 1540 1539 1539 1538
1451 1455 1457 1460 1463 1466 1470 1473 1477 1481 1486 1490 1495 1499 1502 1505 1508 1510 1513 1516 1520 1523 1526 1529 1531 1533 1535 1537 1538 1540 1541 1542 1542 1543 1544 1544 1542 1541 1539 1538 1537 1536 1535
1443 1447 1450 1452 1455 1459 1463 1467 1471 1475 1479 1483 1487 1490 1493 1496 1499 1503 1507 1511 1514 1518 1521 1524 1527 1529 1531 1533 1534 1536 1537 1538 1539 1539 1540 1540 1540 1540 1538 1536 1535 1533 1533
1435 1438 1441 1444 1447 1452 1455 1460 1464 1468 1472 1476 1480 1484 1487 1491 1496 1499 1502 1505 1509 1512 1516 1519 1522 1524 1526 1528 1530 1532 1533 1534 1535 1535 1536 1536 1536 1536 1535 1534 1532 1531 1529
1427 1430 1434 1437 1440 1444 1448 1452 1456 1461 1465 1469 1473 1477 1481 1485 1489 1492 1496 1499 1503 1506 1510 1513 1516 1519 1521 1523 1525 1527 1529 1530 1531 1531 1532 1532 1532 1532 1531 1530 1529 1528 1526
1420 1423 1426 1429 1433 1436 1440 1445 1449 1453 1458 1462 1466 1470 1474 1479 1483 1486 1490 1493 1496 1500 1503 1507 1510 1513 1516 1518 1521 1522 1523 1525 1526 1527 1527 1528 1528 1528 1528 1527 1525 1523 1522
1413 1416 1418 1422 1426 1430 1433 1437 1442 1446 1451 1455 1459 1464 1469 1473 1477 1481 1484 1487 1490 1494 1498 1501 1504 1508 1510 1513 1515 1517 1518 1520 1521 1522 1522 1523 1523 1523 1523 1523 1521 1519 1517
1407 1409 1412 1416 1419 1423 1427 1431 1435 1440 1444 1448 1453 1458 1462 1466 1471 1475 1479 1482 1485 1489 1492 1496 1499 1502 1505 1507 1509 1511 1513 1514 1515 1517 1517 1518 1518 1518 1518 1518 1517 1516 1513
1401 1403 1406 1410 1414 1418 1422 1426 1430 1434 1438 1443 1447 1452 1456 1461 1465 1469 1472 1476 1480 1483 1487 1490 1493 1496 1499 1501 1503 1505 1507 1509 1510 1511 1512 1512 1513 1513 1513 1512 1512 1511 1509
1395 1398 1402 1405 1409 1413 1417 1420 1425 1429 1433 1438 1442 1447 1451 1455 1459 1463 1467 1471 1474 1477 1481 1484 1487 1490 1492 1495 1497 1499 1501 1503 1504 1505 1506 1507 1507 1507 1507 1506 1506 1505 1503
1390 1394 1397 1401 1405 1409 1412 1416 1420 1424 1428 1433 1437 1442 1446 1450 1454 1457 1461 1465 1469 1472 1475 1478 1481 1484 1487 1489 1491 1494 1496 1497 1498 1500 1501 1501 1501 1501 1501 1501 1500 1499 1498
1387 1390 1393 1397 1401 1405 1408 1412 1416 1420 1424 1428 1433 1437 1441 1444 1448 1452 1456 1460 1463 1467 1470 1472 1475 1478 1481 1484 1486 1488 1490 1491 1493 1494 1495 1495 1495 1495 1495 1494 1494 1493 1492
1384 1387 1390 1393 1397 1401 1405 1408 1412 1416 1420 1424 1428 1432 1435 1439 1443 1447 1451 1454 1458 1461 1464 1467 1470 1473 1476 1478 1480 1483 1484 1486 1487 1488 1489 1489 1489 1489 1489 1489 1488 1487 1486
1381 1384 1387 1390 1394 1397 1401 1405 1408 1412 1416 1420 1424 1427 1431 1435 1439 1442 1446 1449 1453 1456 1460 1462 1465 1468 1471 1473 1475 1477 1479 1480 1481 1482 1483 1483 1484 1484 1484 1483 1482 1481 1480
1379 1381 1384 1387 1391 1394 1397 1401 1404 1408 1412 1416 1419 1423 1427 1430 1434 1438 1441 1445 1448 1452 1455 1458 1460 1463 1465 1468 1470 1472 1474 1475 1476 1476 1477 1477 1478 1478 1478 1477 1477 1476 1475
1376 1378 1381 1384 1387 1390 1394 1397 1401 1404 1408 1412 1415 1419 1422 1426 1430 1433 1437 1440 1444 1447 1450 1453 1456 1458 1460 1463 1465 1467 1469 1470 1470 1471 1471 1471 1472 1472 1472 1471 1471 1470 1469
1372 1375 1378 1380 1384 1387 1391 1394 1397 1401 1404 1408 1411 1415 1418 1422 1425 1429 1433 1436 1440 1443 1446 1448 1451 1454 1456 1458 1461 1462 1464 1464 1465 1466 1466 1467 1467 1467 1467 1466 1465 1464 1463
1369 1371 1373 1376 1379 1382 1386 1389 1393 1396 1400 1403 1407 1410 1414 1417 1421 1425 1428 1432 1435 1438 1441 1444 1447 1449 1452 1454 1456 1457 1458 1459 1460 1461 1461 1462 1462 1462 1461 1461 1460 1458 1457
1365 1366 1369 1371 1374 1377 1381 1384 1388 1391 1395 1399 1403 1406 1410 1414 1417 1421 1425 1428 1431 1434 1437 1440 1443 1445 1447 1449 1451 1453 1454 1454 1455 1456 1456 1457 1457 1457 1456 1455 1454 1453 1452
1359 1361 1363 1365 1368 1372 1375 1379 1383 1387 1391 1395 1399 1403 1407 1410 1414 1418 1421 1424 1427 1431 1433 1436 1439 1441 1443 1445 1447 1448 1449 1450 1450 1451 1451 1452 1452 1452 1451 1450 1449 1448 1447
1352 1354 1356 1359 1363 1366 1370 1374 1378 1382 1387 1390 1394 1399 1403 1407 1410 1414 1417 1421 1424 1427 1429 1432 1434 1437 1438 1440 1442 1444 1445 1446 1446 1446 1447 1447 1447 1447 1446 1445 1444 1444 1442
1346 1348 1350 1353 1357 1361 1365 1369 1373 1378 1382 1386 1390 1394 1399 1403 1407 1410 1414 1417 1420 1423 1425 1428 1430 1432 1434 1436 1438 1440 1441 1441 1442 1442 1443 1443 1442 1442 1441 1441 1440 1439 1437
1340 1342 1344 1347 1351 1355 1360 1364 1369 1373 1377 1381 1386 1390 1394 1399 1403 1407 1411 1414 1416 1419 1421 1424 1426 1428 1430 1432 1434 1435 1436 1437 1438 1438 1438 1438 1438 1437 1437 1436 1435 1434 1433
1334 1336 1338 1341 1345 1350 1354 1359 1364 1368 1372 1377 1382 1386 1391 1395 1399 1403 1407 1410 1413 1416 1418 1420 1422 1424 1426 1428 1430 1431 1432 1432 1433 1433 1434 1434 1433 1433 1432 1431 1430 1429 1428
1329 1331 1333 1336 1340 1345 1349 1354 1359 1364 1368 1372 1377 1382 1386 1391 1395 1399 1403 1407 1410 1413 1415 1417 1419 1421 1423 1425 1426 1427 1428 1428 1429 1429 1429 1429 1429 1428 1428 1427 1426 1425 1424